Погода в Речках

Украина / Сумская область     51°07′08″N   34°29′49″E
темп.,
°C
ветер,
м/с
пор.,
м/с
влажн.,
%
обл.,
%
осадки,
мм/ч
давл.,
гПа
погр.,
м
16 мая, вс
вс1600:00+13ю338667 0.0 101237
03:00+13ю3390100 0.0 101246
06:00+14зюз228869 0.0 101236
09:00+18з12735 0.0 1013404
12:00+21ююз235896 0.0 10131182
15:00+22ю235291 0.0 10121754
18:00+22в025728 0.0 10111256
21:00+17ссв347086 0.0 101143
17 мая, пн
пн1700:00+15св488299 0.0 1009125
03:00+15св51283100 0.3 1008267
06:00+14всв51291100 0.0 1006284
09:00+18в6137498 0.0 1004415
12:00+22юв7106253 0.0 1004965
15:00+24юв71163100 0.0 10031431
18:00+22юв61277100 0.0 1002616
21:00+18юв41191100 0.1 1004274
18 мая, вт
вт1800:00+17ююв51393100 0.0 1004416
03:00+15ююв499773 0.0 1005297
06:00+15ю3695100 0.0 1005411
09:00+17ююв4686100 0.0 1006577
12:00+19ююв5778100 0.4 1006909
15:00+19юв6774100 1.1 1005969
18:00+19юв5883100 2.4 1004644
21:00+15ю61190100 3.9 1004392
19 мая, ср
ср1900:00+13юв489650 3.4 1004285
03:00+12юв499788 3.4 1004287
06:00+12ююв61095100 0.0 1004508
09:00+12ююв6988100 0.0 1005611
12:00+17юв7969100 0.5 10041424
15:00+14ююв598197 2.1 1004753
18:00+13ю4688100 1.1 1004477
21:00+11ююз259652 2.4 1004177
20 мая, чт
чт2000:00+10ююз36965 0.0 1005117
03:00+9юз4109993 0.0 1007305
06:00+10юз4896100 0.1 1008573
09:00+11зюз6986100 0.2 1011898
12:00+15зюз687097 0.0 10121316
15:00+18зюз576016 0.1 10131554
18:00+18юз3470100 0.0 1013618
21:00+13юз4892100 0.8 1015232